CZ-4C DEB, 43601

Orbit data source: Space-Track

CZ-4C DEB, 43601 is space debris in SSO originally from a launch on Tue, 09 Aug 2016 UTC launched from the Taiyaun Space Center, China (TSC). Debris objects in space refer to the collection of defunct objects orbiting the Earth. Examples of debris include non-operational satellites, rocket bodies, and fragments generated from explosions, collisions, or faulty payload assembly.

Loading next visibility...
Identifier
43601, 2016-049F
Orbit
SSO
Country
Flag of CNCN / PRC
Related business
Manufacturer
Unknown
Mission
Spacecraft
Bus & Motor
Unknown
Mass
Unknown
Launch date (UTC)
2016-08-09 (9 years ago)
Launch vehicle
Unknown
Launch site
Taiyaun Space Center, China (TSC)
Object type
Payload
Rocket body
Debris
Shape & HBR
Unknown shape, 0.1 m
Radar Cross Section
Small (<0.1 m²)

Expand to show TLE details & history
Last TLE update: 22 hours ago

TLE from 22 hours ago
0 CZ-4C DEB
1 43601U 16049F   25310.57182231  .00030848  00000-0  27995-2 0  9991
2 43601  98.3183  74.0899 0074350 207.1249 152.6077 14.93110500599329
Epoch: 2025-11-06T13:43Z
TLE epoch observation values (Epoch: 2025-11-06T13:43:25.447Z)
Latitude
0.00002°
Longitude
-177.79435°
Altitude
637.348 km
Speed
7.515 km/s
True Right ascension
04h 56m 21s
True Declination
0° 00' 00"
Sunlit
Object was in full shadow at epoch
Visualization orbit readout
Latitude
Unknown
Longitude
Unknown
Altitude
Unknown
Speed
Unknown
Apparent Right ascension
Unknown
Apparent Declination
Unknown
Sunlit
N/A
Visualization observer readout
Local Sidereal Time
07:46:01
Azimuth
Unknown
Elevation
Unknown
Doppler factor
Unknown
Orbital elements
Apogee altitude
637.059 km
Perigee altitude
533.513 km
Semi-major axis
6,963.423 km
Eccentricity
0.00744
Inclination
98.3183°
RAAN
74.0899°
Arg. of periapsis
207.1249°
True anomaly
152.99647°
Mean anomaly
152.6077°
Eccentric anomaly
152.80241°
Mean motion
3.73516 °/min
Orbital period
96.38 mins
BSTAR
0.0027995
Loading maneuver chart data...
Computing Atmospheric mass density...
Loading historical data...
Loading historical data...
Loading historical data...
Loading historical data...
Loading historical data...
Loading historical data...
Loading historical data...
Other satellites on launch #49 in the year 2016 (2016-08-09 UTC)

Documentation

Showing up to 5 results
|